EW3281 Weather Reports


Display with metric or nautical units.
time (UTC)temp
F
wind
direction
speed
MPH
gust
MPH
rain 1hr
in
rain 24hr
in
rain mn
in
humidity
%
barometer
mb
20260831192013 77 267 0.0 0.0 0.00 0.94 0.00 60 1017.3
20260831191512 77 80 0.0 0.0 0.00 0.94 0.00 61 1017.1
20260831191012 77 250 0.0 0.0 0.00 0.94 0.00 60 1017.2
20260831190512 77 248 0.0 0.0 0.00 0.94 0.00 61 1017.2
20260831190014 77 275 0.0 0.0 0.00 0.94 0.00 59 1017.2
20260831185511 78 294 0.0 0.0 0.00 0.94 0.00 59 1017.3
20260831185010 78 325 0.0 0.0 0.00 0.94 0.00 60 1017.4
20260831184517 78 225 0.0 0.0 0.00 0.94 0.00 60 1017.4
20260831183510 79 39 0.0 0.0 0.00 0.94 0.00 60 1017.5
20260831183010 79 224 0.0 0.0 0.00 0.94 0.00 62 1017.6
20260831182512 78 33 0.0 0.0 0.00 0.94 0.00 60 1017.6
20260831182009 78 6 0.0 0.0 0.00 0.94 0.00 60 1017.5
20260831181509 79 92 0.0 0.0 0.00 0.94 0.00 61 1017.5
20260831181008 79 300 0.0 0.0 0.00 0.94 0.00 58 1017.5
20260831180507 79 233 0.0 0.0 0.00 0.94 0.00 55 1017.6
20260831180007 80 205 0.0 0.0 0.00 0.94 0.00 54 1017.5
20260831175507 80 223 0.0 0.0 0.00 0.94 0.00 54 1017.7
20260831175005 80 278 0.0 0.0 0.00 0.94 0.00 55 1017.8
20260831174504 80 226 0.0 0.0 0.00 0.94 0.00 54 1017.9
20260831173515 79 196 0.0 1.0 0.00 0.94 0.00 56 1017.9
20260831173015 79 237 0.0 0.0 0.00 0.94 0.00 59 1017.9
20260831172514 78 245 0.0 0.0 0.00 0.94 0.00 63 1017.8
20260831172017 78 236 0.0 0.0 0.00 0.94 0.00 58 1017.9
20260831171512 77 351 0.0 0.0 0.00 0.94 0.00 60 1017.8
20260831171012 77 352 0.0 0.0 0.00 0.94 0.00 59 1017.8
20260831170511 77 323 0.0 0.0 0.00 0.94 0.00 57 1017.9
20260831170010 77 187 0.0 0.0 0.00 0.94 0.00 57 1018.1
20260831165510 77 347 0.0 0.0 0.00 0.94 0.00 56 1018.0
20260831165009 78 347 0.0 0.0 0.00 0.94 0.00 58 1018.2
20260831164508 77 207 0.0 0.0 0.00 0.94 0.00 59 1018.3
20260831163515 77 226 0.0 0.0 0.00 0.94 0.00 60 1018.3
20260831163035 77 225 0.0 0.0 0.00 0.94 0.00 58 1018.3
20260831162513 77 212 0.0 0.0 0.00 0.94 0.00 63 1018.3
20260831162013 77 198 0.0 0.0 0.00 0.94 0.00 59 1018.3
20260831161514 76 321 0.0 0.0 0.00 0.94 0.00 61 1018.4
20260831161009 76 209 0.0 0.0 0.00 0.94 0.00 63 1018.4
20260831160508 75 341 0.0 0.0 0.00 0.94 0.00 65 1018.5
20260831160008 75 1 0.0 0.0 0.00 0.94 0.00 67 1018.4
20260831155509 74 224 0.0 0.0 0.00 0.94 0.00 69 1018.5
20260831155005 73 203 0.0 0.0 0.00 0.94 0.00 68 1018.5
20260831154505 73 332 0.0 0.0 0.00 0.94 0.00 70 1018.5
20260831153541 72 254 0.0 0.0 0.00 0.94 0.00 74 1018.7
20260831153043 71 347 0.0 0.0 0.00 0.94 0.94 76 1018.8
20260831152541 71 350 0.0 0.0 0.00 0.94 0.94 76 1018.8
20260831152041 71 350 0.0 0.0 0.00 0.94 0.94 74 1018.8
20260831151541 70 341 0.0 0.0 0.00 0.94 0.94 74 1018.8
20260831151043 70 340 0.0 0.0 0.00 0.94 0.94 79 1018.7
20260831150541 70 340 0.0 0.0 0.00 0.94 0.94 81 1018.8
20260831150040 69 25 0.0 0.0 0.00 0.94 0.94 82 1018.7
20260831145541 68 355 0.0 0.0 0.00 0.94 0.94 83 1018.6
20260831145040 68 356 0.0 0.0 0.00 0.94 0.94 84 1018.7
20260831144540 67 340 0.0 0.0 0.00 0.94 0.94 88 1018.7
20260831144142 67 200 0.0 0.0 0.00 0.94 0.94 92 1018.7
20260831143539 66 200 0.0 0.0 0.00 0.94 0.94 93 1018.7
20260831143039 66 199 0.0 0.0 0.00 0.94 0.94 94 1018.6
20260831142540 65 340 0.0 0.0 0.00 0.94 0.94 95 1018.7
20260831142038 65 336 0.0 0.0 0.00 0.94 0.94 97 1018.6
20260831141537 65 327 0.0 0.0 0.00 0.94 0.94 97 1018.6
20260831141038 65 4 0.0 0.0 0.00 0.94 0.94 97 1018.6
20260831140537 64 348 0.0 0.0 0.00 0.94 0.94 97 1018.6
20260831140041 64 354 0.0 0.0 0.00 0.94 0.94 97 1018.5
20260831135536 64 7 0.0 0.0 0.00 0.94 0.94 97 1018.6
20260831135038 64 341 0.0 0.0 0.00 0.94 0.94 97 1018.5
20260831134538 64 335 0.0 0.0 0.00 0.94 0.94 97 1018.5
20260831134136 65 338 0.0 0.0 0.00 0.94 0.94 98 1018.3
20260831133537 65 351 0.0 0.0 0.00 0.94 0.94 98 1018.3
20260831133040 65 270 0.0 0.0 0.00 0.94 0.94 98 1018.4
20260831132536 64 270 0.0 0.0 0.00 0.94 0.94 98 1018.4
20260831132038 64 270 0.0 0.0 0.00 0.94 0.94 98 1018.3
20260831131542 64 270 0.0 0.0 0.00 0.94 0.94 98 1018.3
20260831131034 64 335 0.0 0.0 0.00 0.94 0.94 98 1018.3
20260831130534 64 335 0.0 0.0 0.00 0.94 0.94 98 1018.3
20260831130038 64 335 0.0 0.0 0.00 0.94 0.94 98 1018.4
20260831125536 64 335 0.0 0.0 0.00 0.94 0.94 98 1018.4
20260831125034 64 335 0.0 0.0 0.00 0.94 0.94 98 1018.4
20260831124544 64 335 0.0 0.0 0.00 0.94 0.94 98 1018.4
20260831124137 64 339 0.0 0.0 0.00 0.94 0.94 98 1018.4
20260831123533 64 339 0.0 0.0 0.00 0.94 0.94 98 1018.4
20260831123033 64 339 0.0 0.0 0.00 0.94 0.94 98 1018.4
20260831122533 64 339 0.0 0.0 0.00 0.94 0.94 98 1018.4
20260831122033 64 339 0.0 0.0 0.00 0.94 0.94 98 1018.3
20260831121533 64 339 0.0 0.0 0.00 0.94 0.94 98 1018.4
20260831121032 64 339 0.0 0.0 0.00 0.94 0.94 98 1018.2
20260831120533 64 339 0.0 0.0 0.00 0.94 0.94 98 1018.1
20260831120049 63 339 0.0 0.0 0.00 0.94 0.94 98 1018.1
20260831115533 63 339 0.0 0.0 0.00 0.94 0.94 98 1018.1
20260831115030 63 339 0.0 0.0 0.00 0.94 0.94 98 1018.0
20260831114530 63 339 0.0 0.0 0.00 0.94 0.94 98 1017.9
20260831114131 63 223 0.0 0.0 0.00 0.94 0.94 98 1017.9
20260831113531 63 223 0.0 0.0 0.00 0.94 0.94 98 1017.9
20260831113031 63 223 0.0 0.0 0.00 0.94 0.94 98 1017.9
20260831112530 63 223 0.0 0.0 0.00 0.94 0.94 98 1017.9
20260831112030 63 223 0.0 0.0 0.00 0.94 0.94 98 1017.8
20260831111530 63 223 0.0 0.0 0.00 0.94 0.94 98 1017.6
20260831111029 62 224 0.0 0.0 0.00 0.94 0.94 97 1017.7
20260831110529 62 223 0.0 0.0 0.00 0.94 0.94 97 1017.6
20260831110030 62 223 0.0 0.0 0.00 0.94 0.94 97 1017.6
20260831105531 62 223 0.0 0.0 0.00 0.94 0.94 97 1017.6
20260831105030 62 224 0.0 0.0 0.00 0.94 0.94 97 1017.6
20260831104530 62 223 0.0 0.0 0.00 0.94 0.94 97 1017.4
20260831104129 62 223 0.0 0.0 0.00 0.94 0.94 97 1017.4
20260831103533 62 223 0.0 0.0 0.00 0.94 0.94 97 1017.3
20260831103028 62 223 0.0 0.0 0.00 0.94 0.94 97 1017.3
20260831102528 62 223 0.0 0.0 0.00 0.94 0.94 97 1017.2
20260831102028 62 223 0.0 0.0 0.00 0.94 0.94 97 1017.2
20260831101528 62 223 0.0 0.0 0.00 0.94 0.94 97 1017.1
20260831101028 62 223 0.0 0.0 0.00 0.94 0.94 97 1017.1
20260831100527 62 223 0.0 0.0 0.00 0.94 0.94 97 1016.9
20260831100027 62 223 0.0 0.0 0.00 0.94 0.94 97 1016.9
20260831095530 62 223 0.0 0.0 0.00 0.94 0.94 97 1016.9
20260831095026 62 223 0.0 0.0 0.00 0.94 0.94 97 1016.7
20260831094527 63 224 0.0 0.0 0.00 0.94 0.94 97 1016.6
20260831094126 63 223 0.0 0.0 0.00 0.94 0.94 97 1016.6
20260831093525 63 224 0.0 0.0 0.00 0.94 0.94 97 1016.7
20260831093026 63 223 0.0 0.0 0.00 0.94 0.94 97 1016.5
20260831092525 63 223 0.0 0.0 0.00 0.94 0.94 97 1016.5
20260831092024 63 223 0.0 0.0 0.00 0.94 0.94 97 1016.4
20260831091524 63 223 0.0 0.0 0.00 0.94 0.94 97 1016.3
20260831091024 63 223 0.0 0.0 0.00 0.94 0.94 97 1016.3
20260831090524 63 223 0.0 0.0 0.00 0.94 0.94 97 1016.4
20260831090024 63 223 0.0 0.0 0.00 0.94 0.94 97 1016.5
20260831085528 63 223 0.0 0.0 0.00 0.94 0.94 97 1016.4
20260831085022 63 223 0.0 0.0 0.00 0.94 0.94 97 1016.3
20260831084528 64 224 0.0 0.0 0.00 0.94 0.94 97 1016.4
20260831084122 64 223 0.0 0.0 0.00 0.94 0.94 97 1016.3
20260831083523 64 223 0.0 0.0 0.00 0.94 0.94 97 1016.3
20260831083022 64 223 0.0 0.0 0.00 0.94 0.94 97 1016.3
20260831082526 64 223 0.0 0.0 0.00 0.94 0.94 97 1016.3
20260831082022 64 223 0.0 0.0 0.00 0.94 0.94 97 1016.1
20260831081522 64 223 0.0 0.0 0.00 0.94 0.94 97 1016.2
20260831081021 64 223 0.0 0.0 0.00 0.94 0.94 97 1016.1
20260831080520 64 223 0.0 0.0 0.00 0.94 0.94 97 1016.1
20260831080030 64 223 0.0 0.0 0.00 0.94 0.94 97 1015.9
20260831075520 65 223 0.0 0.0 0.00 0.94 0.94 97 1016.0
20260831075019 65 223 0.0 0.0 0.00 0.94 0.94 97 1016.0
20260831074520 65 223 0.0 0.0 0.00 0.94 0.94 97 1015.9
20260831074119 65 223 0.0 0.0 0.00 0.94 0.94 96 1015.8
20260831073519 65 223 0.0 0.0 0.00 0.94 0.94 96 1015.8
20260831073018 65 223 0.0 0.0 0.00 0.94 0.94 97 1015.8
20260831072521 65 223 0.0 0.0 0.00 0.94 0.94 96 1015.8
20260831072020 65 223 0.0 0.0 0.00 0.94 0.94 96 1015.7
20260831071520 66 223 0.0 0.0 0.00 0.94 0.94 96 1015.7
20260831071015 66 223 0.0 0.0 0.00 0.94 0.94 96 1015.7
20260831070519 66 223 0.0 0.0 0.00 0.94 0.94 96 1015.7
20260831070016 66 223 0.0 0.0 0.00 0.94 0.94 96 1015.7
20260831065514 66 223 0.0 0.0 0.00 0.94 0.94 96 1015.7
20260831065013 66 223 0.0 0.0 0.00 0.94 0.94 96 1015.6
20260831064513 67 236 0.0 0.0 0.00 0.94 0.94 96 1015.7
20260831064112 67 236 0.0 0.0 0.00 0.94 0.94 96 1015.6
20260831063519 67 236 0.0 0.0 0.00 0.94 0.94 96 1015.6
20260831063019 67 236 0.0 0.0 0.00 0.94 0.94 96 1015.5
20260831062519 67 236 0.0 0.0 0.00 0.94 0.94 96 1015.6
20260831062024 67 236 0.0 0.0 0.00 0.94 0.94 96 1015.5
20260831061518 67 236 0.0 0.0 0.00 0.94 0.94 96 1015.6
20260831061019 67 236 0.0 0.0 0.00 0.94 0.94 96 1015.6
20260831060517 67 218 0.0 0.0 0.00 0.94 0.94 96 1015.5
20260831060017 68 205 0.0 0.0 0.00 0.94 0.94 96 1015.5
20260831055517 68 205 0.0 0.0 0.00 0.94 0.94 96 1015.5
20260831055018 68 205 0.0 0.0 0.00 0.94 0.94 96 1015.4
20260831054517 68 205 0.0 0.0 0.00 0.94 0.94 96 1015.3
20260831054117 68 205 0.0 0.0 0.00 0.94 0.94 96 1015.3
20260831053510 68 205 0.0 0.0 0.00 0.94 0.94 96 1015.3
20260831053023 68 205 0.0 0.0 0.00 0.94 0.94 96 1015.3
20260831052509 68 205 0.0 0.0 0.00 0.94 0.94 96 1015.2
20260831052008 68 205 0.0 0.0 0.00 0.94 0.94 96 1015.2
20260831051508 68 205 0.0 0.0 0.00 0.94 0.94 96 1015.2
20260831051008 68 205 0.0 0.0 0.00 0.94 0.94 96 1015.2
20260831050508 68 205 0.0 0.0 0.00 0.94 0.94 96 1015.2
20260831050022 68 205 0.0 0.0 0.00 0.94 0.94 96 1015.2
20260831045508 68 205 0.0 0.0 0.00 0.94 0.94 96 1015.2
20260831045007 68 205 0.0 0.0 0.00 0.94 0.94 96 1015.1
20260831044506 68 205 0.0 0.0 0.15 0.94 0.94 95 1015.0
20260831044105 68 205 0.0 0.0 0.17 0.94 0.94 95 1015.1
20260831043506 68 205 0.0 0.0 0.27 0.94 0.94 95 1015.1
20260831043006 68 205 0.0 0.0 0.46 0.94 0.94 95 1015.1
20260831042506 68 205 0.0 0.0 0.66 0.94 0.94 95 1015.1
20260831042005 68 205 0.0 0.0 0.74 0.94 0.94 95 1015.1
20260831041505 68 205 0.0 0.0 0.76 0.94 0.94 95 1015.2
20260831041004 68 205 0.0 0.0 0.79 0.94 0.94 95 1015.2
20260831040504 68 205 0.0 0.0 0.83 0.94 0.94 95 1015.2
20260831040004 68 205 0.0 0.0 0.84 0.94 0.94 94 1015.1
20260831035506 68 205 0.0 0.0 0.86 0.94 0.94 94 1015.0
20260831035002 69 205 0.0 0.0 0.87 0.94 0.94 94 1015.2
20260831034502 69 205 0.0 0.0 0.89 0.93 0.93 94 1015.2
20260831034101 70 46 0.0 0.0 0.75 0.79 0.79 94 1015.2
20260831033501 70 356 0.0 0.0 0.73 0.76 0.76 94 1015.2
20260831033003 70 309 0.0 0.0 0.54 0.56 0.56 94 1015.5
20260831032502 70 309 0.0 0.0 0.38 0.40 0.40 94 1015.6
20260831032100 70 280 0.0 0.0 0.25 0.26 0.26 94 1015.5
20260831031601 70 279 0.0 0.0 0.19 0.20 0.20 94 1015.5
20260831031059 70 279 0.0 0.0 0.16 0.17 0.17 93 1015.4
20260831030559 70 242 0.0 0.0 0.13 0.14 0.14 93 1015.4
20260831030057 70 304 0.0 0.0 0.09 0.10 0.10 93 1015.5
20260831025559 70 3 0.0 0.0 0.08 0.09 0.09 93 1015.4
20260831025056 70 3 0.0 0.0 0.07 0.08 0.08 92 1015.3
20260831024557 70 266 0.0 0.0 0.07 0.07 0.07 92 1015.3
20260831024054 71 7 0.0 0.0 0.04 0.04 0.04 91 1015.4
20260831023559 71 303 0.0 0.0 0.04 0.04 0.04 91 1015.4
20260831023053 71 308 0.0 0.0 0.03 0.03 0.03 91 1015.4
20260831022552 71 257 0.0 0.0 0.02 0.02 0.02 91 1015.3
20260831022051 71 248 0.0 0.0 0.01 0.01 0.01 90 1015.2
20260831021550 71 245 0.0 0.0 0.01 0.01 0.01 90 1015.2
20260831021049 71 270 0.0 0.0 0.01 0.01 0.01 90 1015.2
20260831020552 71 235 0.0 0.0 0.01 0.01 0.01 90 1015.2
20260831020052 71 11 0.0 0.0 0.01 0.01 0.01 90 1015.2
20260831015545 71 232 0.0 0.0 0.01 0.01 0.01 89 1015.3
20260831015044 71 198 0.0 0.0 0.01 0.01 0.01 89 1015.3
20260831014543 71 311 0.0 0.0 0.01 0.01 0.01 89 1015.4
20260831014042 72 300 0.0 0.0 0.00 0.00 0.00 88 1015.2
20260831013541 72 146 0.0 0.0 0.00 0.00 0.00 88 1015.2
20260831013043 72 233 0.0 0.0 0.00 0.00 0.00 88 1015.2
20260831012541 72 222 0.0 0.0 0.00 0.00 0.00 87 1015.4
20260831012037 72 202 0.0 0.0 0.00 0.00 0.00 87 1015.3
20260831011544 73 155 0.0 0.0 0.00 0.00 0.00 86 1015.2
20260831011036 73 297 0.0 0.0 0.00 0.00 0.00 85 1015.4
20260831010535 73 184 0.0 0.0 0.00 0.00 0.00 85 1015.4
20260831010042 73 225 0.0 0.0 0.00 0.00 0.00 84 1015.4
20260831005534 73 193 0.0 0.0 0.00 0.00 0.00 84 1015.3
20260831005035 73 218 0.0 0.0 0.00 0.00 0.00 84 1015.3
20260831004535 73 134 0.0 0.0 0.00 0.00 0.00 84 1015.1
20260831004136 73 252 0.0 0.0 0.00 0.00 0.00 83 1015.2
20260831003536 73 252 0.0 0.0 0.00 0.00 0.00 83 1015.1
20260831003037 73 44 0.0 0.0 0.00 0.00 0.00 83 1015.1
20260831002532 73 250 0.0 0.0 0.00 0.00 0.00 82 1015.1
20260831002034 73 219 0.0 0.0 0.00 0.00 0.00 82 1015.1
20260831001531 73 340 0.0 0.0 0.00 0.00 0.00 82 1015.0
20260831001032 73 38 0.0 0.0 0.00 0.00 0.00 81 1015.0
20260831000529 74 258 0.0 0.0 0.00 0.00 0.00 81 1014.9
20260831000032 74 267 0.0 0.0 0.00 0.00 0.00 80 1014.8
20260830235529 74 297 0.0 0.0 0.00 0.00 0.00 79 1014.8
20260830235028 74 228 0.0 0.0 0.00 0.00 0.00 79 1014.8
20260830234538 74 340 0.0 0.0 0.00 0.00 0.00 78 1014.7
20260830234028 74 354 0.0 0.0 0.00 0.00 0.00 77 1014.7
20260830233531 74 243 0.0 0.0 0.00 0.00 0.00 77 1014.7
20260830233031 74 27 0.0 0.0 0.00 0.00 0.00 76 1014.7
20260830232534 74 243 0.0 0.0 0.00 0.00 0.00 75 1014.8
20260830232029 74 284 0.0 0.0 0.00 0.00 0.00 74 1014.9
20260830231530 74 243 0.0 0.0 0.00 0.00 0.00 74 1014.9
20260830231028 74 248 0.0 0.0 0.00 0.00 0.00 73 1014.9
20260830230527 74 286 0.0 0.0 0.00 0.00 0.00 73 1014.8
20260830230027 75 311 0.0 0.0 0.00 0.00 0.00 72 1014.8
20260830225526 75 267 0.0 0.0 0.00 0.00 0.00 71 1014.7
20260830225027 75 256 0.0 0.0 0.00 0.00 0.00 70 1014.8
20260830224524 75 250 0.0 0.0 0.00 0.00 0.00 70 1014.9
20260830224024 75 312 0.0 0.0 0.00 0.00 0.00 68 1015.0
20260830223526 75 326 0.0 0.0 0.00 0.00 0.00 68 1015.0
20260830223024 75 255 0.0 0.0 0.00 0.00 0.00 68 1015.0
20260830222524 76 257 0.0 0.0 0.00 0.00 0.00 67 1015.1
20260830222023 76 7 0.0 0.0 0.00 0.00 0.00 66 1015.2
20260830221532 76 210 0.0 0.0 0.00 0.00 0.00 65 1015.1
20260830221022 76 217 0.0 0.0 0.00 0.00 0.00 65 1015.1
20260830220521 76 247 0.0 0.0 0.00 0.00 0.00 64 1015.2
20260830220020 76 325 0.0 0.0 0.00 0.00 0.00 63 1015.2
20260830215522 76 264 0.0 0.0 0.00 0.00 0.00 63 1015.2
20260830215020 76 211 0.0 0.0 0.00 0.00 0.00 63 1015.1
20260830214520 76 25 0.0 0.0 0.00 0.00 0.00 62 1015.1
20260830214021 77 284 0.0 0.0 0.00 0.00 0.00 62 1015.3
20260830213515 77 288 0.0 0.0 0.00 0.00 0.00 61 1015.3
20260830213017 77 324 0.0 0.0 0.00 0.00 0.00 61 1015.3
20260830212515 77 204 0.0 0.0 0.00 0.00 0.00 60 1015.3
20260830212013 77 293 0.0 0.0 0.00 0.00 0.00 59 1015.3
20260830211513 77 296 0.0 0.0 0.00 0.00 0.00 58 1015.4
20260830211013 77 358 0.0 0.0 0.00 0.00 0.00 57 1015.3
20260830210513 77 360 0.0 0.0 0.00 0.00 0.00 57 1015.2
20260830210012 78 8 0.0 0.0 0.00 0.00 0.00 56 1015.2
20260830205511 78 221 0.0 0.0 0.00 0.00 0.00 56 1015.2
20260830205011 78 226 0.0 0.0 0.00 0.00 0.00 55 1015.2
20260830204511 78 199 0.0 0.0 0.00 0.00 0.00 54 1015.3
20260830204010 78 224 0.0 0.0 0.00 0.00 0.00 52 1015.3
20260830203509 78 25 0.0 0.0 0.00 0.00 0.00 53 1015.3
20260830203009 79 240 0.0 0.0 0.00 0.00 0.00 57 1015.4
20260830202509 79 64 0.0 0.0 0.00 0.00 0.00 61 1015.3
20260830202009 79 350 0.0 0.0 0.00 0.00 0.00 61 1015.2
20260830201509 79 11 0.0 0.0 0.00 0.00 0.00 60 1015.3
20260830201008 80 29 0.0 0.0 0.00 0.00 0.00 59 1015.2
20260830200508 80 139 0.0 0.0 0.00 0.00 0.00 58 1015.2
20260830200022 80 161 0.0 0.0 0.00 0.00 0.00 59 1015.3
20260830195506 80 274 0.0 0.0 0.00 0.00 0.00 60 1015.4
20260830195006 80 113 0.0 0.0 0.00 0.00 0.00 57 1015.5
20260830194505 81 32 0.0 0.0 0.00 0.00 0.00 55 1015.6
20260830194004 81 162 0.0 0.0 0.00 0.00 0.00 52 1015.6
20260830193047 81 142 0.0 0.0 0.00 0.00 0.00 49 1015.8
20260830192547 81 237 0.0 0.0 0.00 0.00 0.00 50 1015.9